sat.trackr.live / text

‹ back to catalog

SAUDICOMSAT 2

NORAD 28370 · 2004-025E

PAYLOAD ACTIVE UNKNOWN

§ Identity

Operator
Country
SAUD
Launch date
2004-06-29
Launch site
TYMSC
Launch vehicle
Mass (kg)
RCS (m²)
0.06

External: N2YO · Heavens-Above · Gunter

§ Orbital elements

Epoch: 2026-09-18T06:46:43.099392Z

Period
99.31 min
Inclination
98.6650°
Eccentricity
0.0055126
Mean motion
14.50025860 rev/d
Perigee alt
686.4 km
Apogee alt
764.7 km
Semi-major
7,103.7 km
B*
5.5474e-5
RAAN
276.1644°
Arg perigee
338.7000°
Mean anomaly
21.1898°
Rev number
17,359

§ Raw data

SAUDICOMSAT 21 28370U 04025E   26261.28244328  .00000169  00000+0  55474-4 0  99952 28370  98.6650 276.1644 0055126 338.7000  21.1898 14.50025860173591

JSON: /api/v1/satellites/28370 · /tle

For live sub-satellite position, see the globe view (requires WebGL).

§ Visibility from observer

Set your observer location to see the next 7 days of passes ≥ 10°. The values pass through the URL so the page stays shareable.

No JS? Fill the form by hand. The geolocation button needs JavaScript.